Showing default

KUIPER-00439, 68941

Orbit data source: Space-Track

KUIPER-00439, 68941 is a payload satellite owned by Kuiper Systems (US) in LEO that was launched on Thu, 30 Apr 2026 UTC via an ARIANE 64 launch vehicle from the Air Force Eastern Test Range (AFETR). Payload-class satellites include a variety of spacecraft equipped with specific instruments for various scientific and technological missions. These include communications satellites like Starlink; space stations such as the ISS; scientific satellites like the Hubble; Earth observation satellites from companies like Planet Labs, Umbra, and HawkEye 360; GPS; miniature CubeSats for education and research; and military/defense satellites.

Loading next visibility...
Identifier
68941, 2026-098Y
Orbit
LEO
Country
Flag of USUS
Related business
Manufacturer
Kuiper Systems
Mission
Operational spacecraft
Bus & Motor
KUIPER, Unknown motor
Mass
~490 kg wet, ~490 kg dry
Launch date (UTC)
2026-04-30 (6 days ago)
Launch vehicle
ARIANE 64
Launch site
Air Force Eastern Test Range (AFETR)
Object type
Payload
Rocket body
Debris
Shape & HBR
Unknown
Radar Cross Section
RCS unknown

Expand to show TLE details & history
Last TLE update: 7 hours ago

TLE from 7 hours ago
0 KUIPER-00439
1 68941U 26098Y   26126.25002315  .00053441  00000-0  15814-2 0  9996
2 68941  51.8773 269.7845 0008117   0.8819  74.6984 15.34346111  1306
Epoch: 2026-05-06T06:00Z
TLE epoch observation values (Epoch: 2026-05-06T06:00:02.000Z)
Latitude
49.81171°
Longitude
23.15939°
Altitude
467.039 km
Speed
7.64 km/s
True Right ascension
22h 29m 07s
True Declination
49° 38' 06"
Sunlit
Object was in daylight at epoch
Visualization orbit readout
Latitude
Unknown
Longitude
Unknown
Altitude
Unknown
Speed
Unknown
Apparent Right ascension
Unknown
Apparent Declination
Unknown
Sunlit
N/A
Visualization observer readout
Local Sidereal Time
20:27:06
Azimuth
Unknown
Elevation
Unknown
Doppler factor
Unknown
Orbital elements
Apogee altitude
468.882 km
Perigee altitude
457.776 km
Semi-major axis
6,841.466 km
Eccentricity
0.00081
Inclination
51.8773°
RAAN
269.7845°
Arg. of periapsis
0.8819°
True anomaly
74.78814°
Mean anomaly
74.6984°
Eccentric anomaly
74.74327°
Mean motion
3.83548 °/min
Orbital period
93.86 mins
BSTAR
0.0015814
Loading maneuver chart data...
Computing Atmospheric mass density...
Loading historical data...
Loading historical data...
Loading historical data...
Loading historical data...
Loading historical data...
Loading historical data...
Loading historical data...

Documentation

Showing up to 5 results
|